Regional Weather Roundup
Issued by NWS Little Rock, AR

Home | Current Version | Previous Version | Graphics & Text | Print | Product List | Glossary On
Versions: 1 2 3 4 5 6 7 8 9 10 11 12 13 14 15 16 17 18 19 20 21 22 23 24 25 26 27 28 29 30 31 32 33 34 35 36 37 38 39 40 41 42 43 44 45 46 47 48 49 50
000
ASUS44 KLZK 230605
RWRLZK

WEATHER ROUNDUP FOR ARKANSAS
NATIONAL WEATHER SERVICE LITTLE ROCK AR
100 AM CDT SUN APR 23 2017

NOTE: "FAIR" INDICATES FEW OR NO CLOUDS BELOW 12,000 FEET WITH NO
SIGNIFICANT WEATHER AND/OR OBSTRUCTIONS TO VISIBILITY.

ARZ001-003-010-029-230700-
NORTHWEST ARKANSAS

CITY           SKY/WX    TMP DP  RH WIND       PRES   REMARKS
FAYETTEVILLE   CLOUDY    46  46 100 N3        30.10S
6HR MIN TEMP:  46; 6HR MAX TEMP:  47; 6HR PCP: TRACE;

FORT SMITH     CLOUDY    52  44  74 NW8       30.10S
6HR MIN TEMP:  51; 6HR MAX TEMP:  52; 6HR PCP: TRACE;

HARRISON       CLOUDY    46  45  96 NW6       30.07F
6HR MIN TEMP:  46; 6HR MAX TEMP:  46; 6HR PCP:  0.01;

BENTONVILLE    CLOUDY    46  43  87 CALM      30.11S
6HR MIN TEMP:  46; 6HR MAX TEMP:  48; 6HR PCP:  0.01;

ROGERS         CLOUDY    46  45  96 NW5       30.11S
6HR MIN TEMP:  45; 6HR MAX TEMP:  47; 6HR PCP: TRACE;

SILOAM SPGS    CLOUDY    46  41  81 N8        30.12S
6HR MIN TEMP:  46; 6HR MAX TEMP:  48;

HIGHFILL       CLOUDY    47  44  90 NW8       30.10F
6HR MIN TEMP:  47; 6HR MAX TEMP:  48; 6HR PCP: TRACE;

$$

ARZ004-005-016-230700-
NORTH CENTRAL ARKANSAS

CITY           SKY/WX    TMP DP  RH WIND       PRES   REMARKS
BATESVILLE     CLOUDY   N/A N/A N/A NW5       30.03F
FLIPPIN        CLOUDY    48  43  81 N3        30.04S
6HR MIN TEMP:  46; 6HR MAX TEMP:  48; 6HR PCP:  0.03;

$$

ARZ040-041-230700-
WEST CENTRAL ARKANSAS

CITY           SKY/WX    TMP DP  RH WIND       PRES   REMARKS
MENA           CLOUDY    52  50  93 CALM      30.07S
MOUNT IDA      CLOUDY    51  45  79 VRB6      30.03S
6HR MIN TEMP:  51; 6HR MAX TEMP:  53;

$$

ARZ009-017-025-026-028-230700-
NORTHEAST ARKANSAS

CITY           SKY/WX    TMP DP  RH WIND       PRES   REMARKS
CORNING        LGT RAIN  50  48  93 N12       30.01F
JONESBORO      CLOUDY    50  47  89 N9G16     29.98S
6HR MIN TEMP:  48; 6HR MAX TEMP:  51; 6HR PCP:  0.04;

NEWPORT        LGT RAIN  49  47  93 N14       30.00S
6HR MIN TEMP:  49; 6HR MAX TEMP:  51; 6HR PCP:  0.02;

WALNUT RIDGE   CLOUDY    50  45  81 N15       30.00F
6HR MIN TEMP:  48; 6HR MAX TEMP:  52; 6HR PCP:  0.02;

BLYTHEVILLE    LGT RAIN  51  50  96 N13       29.96S
6HR MIN TEMP:  51; 6HR MAX TEMP:  53; 6HR PCP:  0.06;

$$

ARZ022-023-033-042-044-230700-
CENTRAL ARKANSAS

CITY           SKY/WX    TMP DP  RH WIND       PRES   REMARKS
LITTLE ROCK    CLOUDY    51  47  86 N9        30.03S
6HR MIN TEMP:  50; 6HR MAX TEMP:  54; 6HR PCP: TRACE;

N LITTLE ROCK    N/A     49  47  91 N5        30.03F
6HR MIN TEMP:  49; 6HR MAX TEMP:  52;

JACKSONVILLE   CLOUDY    52  47  83 N10       30.01F
6HR MIN TEMP:  51; 6HR MAX TEMP:  53; 6HR PCP: TRACE;

CONWAY           N/A     52  46  82 N9        30.03S
SEARCY         CLOUDY    50  47  89 N9        30.03
6HR MIN TEMP:  50; 6HR MAX TEMP:  53;

HOT SPRINGS    CLOUDY    52  47  83 N8        30.04S
6HR MIN TEMP:  52; 6HR MAX TEMP:  56; 6HR PCP: TRACE;

RUSSELLVILLE   CLOUDY    51  45  79 NW6       30.05F
6HR MIN TEMP:  51; 6HR MAX TEMP:  54;

$$

ARZ036-230700-
EAST ARKANSAS

CITY           SKY/WX    TMP DP  RH WIND       PRES   REMARKS
WEST MEMPHIS   LGT RAIN  50  50 100 N10G17    29.94S FOG
6HR MIN TEMP:  50; 6HR MAX TEMP:  52; 6HR PCP:  0.01;

$$

ARZ050-053-066-070-073-230700-
SOUTHWEST ARKANSAS

CITY           SKY/WX    TMP DP  RH WIND       PRES   REMARKS
ARKADELPHIA    CLOUDY    54  49  83 N8        30.04F
6HR MIN TEMP:  54; 6HR MAX TEMP:  58;

CAMDEN         CLOUDY    52  48  87 NW3       30.03F
TEXARKANA      CLOUDY    51  45  79 NW12      30.06S
6HR MIN TEMP:  51; 6HR MAX TEMP:  57;

EL DORADO      CLOUDY    51  50  96 NW8       30.03S
6HR MIN TEMP:  51; 6HR MAX TEMP:  62; 6HR PCP: TRACE;

DE QUEEN       CLOUDY    51  46  83 NW3       30.06F
6HR MIN TEMP:  50; 6HR MAX TEMP:  54;

$$

ARZ056-057-069-230700-
SOUTHEAST ARKANSAS

CITY           SKY/WX    TMP DP  RH WIND       PRES   REMARKS
PINE BLUFF     CLOUDY    52  48  86 N13       30.02R
6HR MIN TEMP:  51; 6HR MAX TEMP:  55; 6HR PCP:  0.01;

STUTTGART      CLOUDY    52  39  62 N15       30.01S
6HR MIN TEMP:  52; 6HR MAX TEMP:  55;

MONTICELLO     CLOUDY    53  49  86 NW6       29.99F
6HR MIN TEMP:  53; 6HR MAX TEMP:  58;


$$





USA.gov is the U.S. government's official web portal to all federal, state and local government web resources and services.